{"data":{"norad_id":64555,"epoch":"2026-09-21T19:42:00.766944Z","epoch_age_seconds":67432,"freshness":"FRESH","line1":"1 64555U 25135AD  26264.82084221  .00005141  00000+0  23393-3 0  9991","line2":"2 64555  97.4758  19.0158 0001232  50.2185 309.9159 15.21151528 69541","mean_motion":15.21151528,"eccentricity":0.0001232,"inclination_deg":97.4758,"raan_deg":19.0158,"arg_perigee_deg":50.2185,"mean_anomaly_deg":309.9159,"bstar":0.00023393,"rev_number":6954,"period_min":94.665125301048,"perigee_km":501.51833410091,"apogee_km":503.21369004308,"semimajor_km":6880.503012072,"source":"CELESTRAK","updated_at":"2026-09-22T09:00:29.846099Z"}}